EN

Hourly Weather Lukashivka

Today, 24 November, Tuesday

Time Temperature Precipitation Wind Pressure Humidity
00:00 -1°C° 0 mm 3 mps 749 mmHg 86%
01:00 -1°C° 0 mm 3 mps 749 mmHg 86%
02:00 -1°C° 0 mm 3 mps 748 mmHg 90%
03:00 0°C° 0 mm 3 mps 748 mmHg 90%
04:00 -1°C° 0 mm 4 mps 747 mmHg 89%
05:00 -1°C° 0 mm 4 mps 747 mmHg 89%
06:00 0°C° 0.5 mm 4 mps 747 mmHg 91%
07:00 0°C° 0.5 mm 4 mps 747 mmHg 94%
08:00 0°C° 0 mm 4 mps 747 mmHg 97%
09:00 +1°C° 0 mm 4 mps 747 mmHg 92%
10:00 +1°C° 0 mm 5 mps 747 mmHg 88%
11:00 +2°C° 0 mm 5 mps 747 mmHg 83%
12:00 +2°C° 0 mm 5 mps 747 mmHg 80%
13:00 +2°C° 0 mm 5 mps 747 mmHg 76%
14:00 +3°C° 0 mm 5 mps 747 mmHg 73%
15:00 +2°C° 0 mm 5 mps 747 mmHg 77%
16:00 +3°C° 0 mm 4 mps 747 mmHg 81%
17:00 +1°C° 0 mm 4 mps 748 mmHg 85%
18:00 +1°C° 0 mm 4 mps 748 mmHg 85%
19:00 +1°C° 0 mm 4 mps 748 mmHg 86%
20:00 0°C° 0 mm 4 mps 748 mmHg 86%
21:00 0°C° 0 mm 4 mps 748 mmHg 85%
22:00 0°C° 0 mm 4 mps 748 mmHg 84%
23:00 0°C° 0 mm 4 mps 748 mmHg 83%

Tomorrow, 25 November, Wednesday

Time Temperature Precipitation Wind Pressure Humidity
00:00 0°C° 0 mm 4 mps 748 mmHg 81%
01:00 0°C° 0 mm 4 mps 749 mmHg 79%
02:00 0°C° 0 mm 4 mps 749 mmHg 77%
03:00 +1°C° 0 mm 3 mps 749 mmHg 77%
04:00 0°C° 0 mm 3 mps 748 mmHg 78%
05:00 0°C° 0 mm 3 mps 748 mmHg 79%
06:00 0°C° 0 mm 3 mps 748 mmHg 82%
07:00 -1°C° 0 mm 4 mps 748 mmHg 86%
08:00 -1°C° 0 mm 4 mps 749 mmHg 89%
09:00 0°C° 0.2 mm 5 mps 748 mmHg 89%
10:00 +1°C° 0.2 mm 5 mps 748 mmHg 90%
11:00 +1°C° 0.2 mm 6 mps 747 mmHg 90%
12:00 +2°C° 0 mm 5 mps 747 mmHg 85%
13:00 +2°C° 0 mm 5 mps 747 mmHg 81%
14:00 +2°C° 0 mm 5 mps 747 mmHg 76%
15:00 +3°C° 0 mm 4 mps 747 mmHg 80%
16:00 +1°C° 0 mm 4 mps 747 mmHg 84%
17:00 +1°C° 0 mm 4 mps 747 mmHg 88%
18:00 +2°C° 0 mm 3 mps 748 mmHg 89%
19:00 +2°C° 0 mm 3 mps 748 mmHg 89%
20:00 +3°C° 0 mm 2 mps 749 mmHg 90%
21:00 +3°C° 0 mm 2 mps 749 mmHg 91%
22:00 +3°C° 0 mm 2 mps 749 mmHg 92%
23:00 +4°C° 0 mm 1 mps 749 mmHg 93%

Day after tomorrow, 26 November, Thursday

Time Temperature Precipitation Wind Pressure Humidity
00:00 +4°C° 0.1 mm 1 mps 749 mmHg 93%
01:00 +4°C° 0.1 mm 1 mps 750 mmHg 94%
02:00 +4°C° 0.1 mm 1 mps 750 mmHg 94%
03:00 +3°C° 0.1 mm 1 mps 750 mmHg 95%
04:00 +3°C° 0.1 mm 1 mps 750 mmHg 95%
05:00 +3°C° 0.1 mm 1 mps 750 mmHg 96%
06:00 +3°C° 0 mm 1 mps 751 mmHg 95%
07:00 +3°C° 0 mm 1 mps 751 mmHg 95%
08:00 +3°C° 0 mm 1 mps 751 mmHg 94%
09:00 +3°C° 0 mm 1 mps 751 mmHg 90%
10:00 +4°C° 0 mm 1 mps 751 mmHg 86%
11:00 +4°C° 0 mm 1 mps 751 mmHg 82%
12:00 +5°C° 0 mm 1 mps 752 mmHg 81%
13:00 +5°C° 0 mm 1 mps 752 mmHg 79%
14:00 +4°C° 0 mm 2 mps 752 mmHg 78%
15:00 +4°C° 0 mm 2 mps 752 mmHg 80%
16:00 +4°C° 0 mm 2 mps 751 mmHg 81%
17:00 +4°C° 0 mm 2 mps 751 mmHg 82%
18:00 +4°C° 0 mm 2 mps 751 mmHg 83%
19:00 +3°C° 0 mm 2 mps 752 mmHg 84%
20:00 +3°C° 0 mm 2 mps 752 mmHg 86%
21:00 +3°C° 0 mm 2 mps 752 mmHg 87%
22:00 +2°C° 0 mm 3 mps 751 mmHg 88%
23:00 +2°C° 0 mm 3 mps 751 mmHg 89%

27 November, Friday

Time Temperature Precipitation Wind Pressure Humidity
00:00 +2°C° 0 mm 3 mps 751 mmHg 88%
01:00 +1°C° 0 mm 4 mps 751 mmHg 88%
02:00 +1°C° 0 mm 4 mps 751 mmHg 87%
03:00 +1°C° 0 mm 5 mps 751 mmHg 85%
04:00 +2°C° 0 mm 5 mps 751 mmHg 84%
05:00 +2°C° 0 mm 5 mps 751 mmHg 83%
06:00 +2°C° 0 mm 5 mps 751 mmHg 83%
07:00 +2°C° 0 mm 5 mps 751 mmHg 83%
08:00 +2°C° 0 mm 6 mps 751 mmHg 84%
09:00 +3°C° 0 mm 6 mps 751 mmHg 78%
10:00 +4°C° 0 mm 7 mps 751 mmHg 73%
11:00 +5°C° 0 mm 7 mps 751 mmHg 67%
12:00 +5°C° 0 mm 7 mps 750 mmHg 66%
13:00 +6°C° 0 mm 7 mps 750 mmHg 64%
14:00 +6°C° 0 mm 7 mps 750 mmHg 63%
15:00 +5°C° 0 mm 6 mps 750 mmHg 68%
16:00 +5°C° 0 mm 6 mps 750 mmHg 72%
17:00 +5°C° 0 mm 5 mps 750 mmHg 77%
18:00 +5°C° 0 mm 5 mps 750 mmHg 78%
19:00 +4°C° 0 mm 6 mps 750 mmHg 79%
20:00 +4°C° 0 mm 6 mps 750 mmHg 80%
21:00 +4°C° 0 mm 6 mps 750 mmHg 81%
22:00 +5°C° 0 mm 6 mps 750 mmHg 81%
23:00 +5°C° 0 mm 6 mps 750 mmHg 81%

28 November, Saturday

Time Temperature Precipitation Wind Pressure Humidity
00:00 +5°C° 0 mm 6 mps 750 mmHg 81%
01:00 +6°C° 0 mm 5 mps 750 mmHg 81%
02:00 +6°C° 0 mm 5 mps 750 mmHg 81%
03:00 +6°C° 0 mm 5 mps 750 mmHg 81%
04:00 +5°C° 0 mm 5 mps 750 mmHg 81%
05:00 +5°C° 0 mm 5 mps 750 mmHg 81%
06:00 +5°C° 0 mm 5 mps 750 mmHg 82%
07:00 +5°C° 0 mm 5 mps 750 mmHg 82%
08:00 +5°C° 0 mm 5 mps 750 mmHg 82%
09:00 +5°C° 0 mm 5 mps 750 mmHg 81%
10:00 +5°C° 0 mm 5 mps 750 mmHg 79%
11:00 +5°C° 0 mm 5 mps 750 mmHg 77%
12:00 +6°C° 0 mm 4 mps 750 mmHg 76%
13:00 +6°C° 0 mm 4 mps 750 mmHg 75%
14:00 +6°C° 0 mm 4 mps 750 mmHg 73%
15:00 +6°C° 0 mm 4 mps 750 mmHg 74%
16:00 +6°C° 0 mm 4 mps 749 mmHg 74%
17:00 +6°C° 0 mm 4 mps 749 mmHg 75%
18:00 +6°C° 0 mm 4 mps 749 mmHg 75%
19:00 +6°C° 0 mm 4 mps 749 mmHg 76%
20:00 +6°C° 0 mm 4 mps 749 mmHg 77%
21:00 +6°C° 0 mm 5 mps 749 mmHg 78%
22:00 +6°C° 0 mm 5 mps 749 mmHg 79%
23:00 +5°C° 0 mm 5 mps 749 mmHg 80%

29 November, Sunday

Time Temperature Precipitation Wind Pressure Humidity
00:00 +5°C° 0 mm 5 mps 749 mmHg 81%
01:00 +5°C° 0 mm 5 mps 748 mmHg 81%
02:00 +5°C° 0 mm 5 mps 748 mmHg 81%
03:00 +5°C° 0 mm 5 mps 747 mmHg 81%
04:00 +5°C° 0 mm 5 mps 747 mmHg 81%
05:00 +5°C° 0 mm 5 mps 747 mmHg 81%
06:00 +5°C° 0.2 mm 5 mps 746 mmHg 82%
07:00 +5°C° 0.2 mm 5 mps 746 mmHg 84%
08:00 +5°C° 0.2 mm 5 mps 746 mmHg 85%
09:00 +5°C° 1.1 mm 5 mps 746 mmHg 86%
10:00 +5°C° 1.1 mm 5 mps 746 mmHg 87%
11:00 +5°C° 1.1 mm 5 mps 745 mmHg 88%
12:00 +5°C° 0.6 mm 5 mps 745 mmHg 88%
13:00 +4°C° 0.6 mm 4 mps 745 mmHg 89%
14:00 +4°C° 0.6 mm 4 mps 745 mmHg 89%
15:00 +4°C° 0.1 mm 4 mps 745 mmHg 87%
16:00 +3°C° 0.1 mm 4 mps 746 mmHg 85%
17:00 +3°C° 0.1 mm 4 mps 746 mmHg 83%
18:00 +2°C° 0 mm 3 mps 746 mmHg 83%
19:00 +1°C° 0 mm 3 mps 747 mmHg 83%
20:00 +1°C° 0 mm 2 mps 747 mmHg 83%
21:00 +1°C° 0 mm 2 mps 747 mmHg 84%
22:00 -1°C° 0 mm 2 mps 748 mmHg 84%
23:00 +1°C° 0 mm 1 mps 748 mmHg 85%
Show more